Location: Bushrod
(6.3500°N, 10.7833°W)
Time: 16:41:22
(UTC+00:00)

Cosmos 2219 - Pass Details

Date: 17 September 2019
Orbit: 834 x 859 km, 71.1° (Epoch: 21 October)

Event Time Altitude Azimuth Distance (km) Brightness Sun altitude
Rises 19:02:14 0° 180° (S) 3,412 6.3 -5.9°
Reaches altitude 10° 19:04:50 10° 172° (S) 2,479 5.5 -6.5°
Maximum altitude 19:10:05 39° 104° (ESE) 1,268 3.7 -7.8°
Drops below altitude 10° 19:15:21 10° 37° (NE) 2,484 5.3 -9.1°
Sets 19:17:57 0° 30° (NNE) 3,421 6.1 -9.8°
